sat.trackr.live / text

‹ back to catalog

APRIZESAT 1

NORAD 28372 · 2004-025G

PAYLOAD ACTIVE UNKNOWN

§ Identity

Operator
Country
US
Launch date
2004-06-29
Launch site
TYMSC
Launch vehicle
Mass (kg)
RCS (m²)
0.06

External: N2YO · Heavens-Above · Gunter

§ Orbital elements

Epoch: 2026-09-19T07:14:17.179008Z

Period
99.19 min
Inclination
98.6322°
Eccentricity
0.0043656
Mean motion
14.51819093 rev/d
Perigee alt
688.7 km
Apogee alt
750.7 km
Semi-major
7,097.9 km
B*
4.1601e-5
RAAN
275.6000°
Arg perigee
228.1351°
Mean anomaly
131.6114°
Rev number
17,556

§ Raw data

APRIZESAT 11 28372U 04025G   26262.30158772  .00000120  00000+0  41601-4 0  99922 28372  98.6322 275.6000 0043656 228.1351 131.6114 14.51819093175562

JSON: /api/v1/satellites/28372 · /tle

For live sub-satellite position, see the globe view (requires WebGL).

§ Visibility from observer

Set your observer location to see the next 7 days of passes ≥ 10°. The values pass through the URL so the page stays shareable.

No JS? Fill the form by hand. The geolocation button needs JavaScript.